[[{"header":{"parameterUnit":"m.s-1","parameterCategory":2,"la1":30.2991,"la2":30.254,"lo1":-89.0895,"lo2":-89.0444,"dy":0.0017,"dx":0.0017,"nx":28,"ny":28,"refTime":"2025-07-16T21:00:00:Z","depth":"0","parameterNumber":2,"parameterNumberName":"U-component_of_CURRENTS"},"data":[0,0,0,0,0,0,0,0,0,0,0,0,0,0,0,0,0,0,0,0,0,0,0,0,0,0,0,0,0,0,0,0,0,0,0,0,0,0,0,0,0,0,0,0,0,0,0,0,0,0,0,0,0,0,0,0,0,0,0.2106,0.2105,0,0.2049,0.2049,0.2049,0.2037,0.2037,0.2036,0.2036,0.2028,0.2028,0.2028,0,0,0,0,0,0,0,0,0,0,0,0,0,0.2114,0.2115,0.2106,0.2105,0.2103,0.2049,0.2049,0.2049,0.2037,0.2037,0.2036,0.2036,0.2028,0.2028,0.2028,0,0,0,0,0,0,0,0,0,0,0,0,0,0.2097,0.2115,0.2106,0.2085,0.2082,0.2049,0.2049,0.2049,0.2037,0.2037,0.2036,0.2036,0.2028,0.2028,0.2028,0.2037,0,0,0.2028,0.2028,0,0,0,0,0,0,0,0,0.2098,0.2098,0.209,0.2086,0.2083,0.2043,0.2048,0.2045,0.2037,0.2063,0.2036,0.2036,0.2032,0.2032,0.2033,0.2037,0.2037,0.2028,0.2028,0.2028,0.2028,0,0,0,0,0,0,0,0.2099,0.2099,0.2092,0.2088,0.2084,0.2046,0.2045,0.2048,0.2058,0.206,0.2057,0.2039,0.2032,0.2033,0.2033,0.2036,0.2028,0.2028,0.2028,0.2028,0.2101,0.2103,0,0,0,0,0,0,0.2096,0.2101,0.2093,0.2089,0.208,0.2047,0.2046,0.2063,0.2057,0.2052,0.2039,0.2038,0.2033,0.2033,0.2032,0.2076,0.2028,0.2028,0.2028,0.2099,0.2102,0.2104,0,0,0,0,0,0,0.2097,0.2097,0.2095,0.2085,0.2081,0.2047,0.2066,0.2062,0.2059,0.2038,0.2037,0.204,0.2033,0.2032,0.2035,0.2074,0.2028,0.2028,0.2097,0.21,0.2103,0.2142,0,0,0,0,0,0,0.2098,0.2099,0.2111,0.2086,0.2081,0.2091,0.2065,0.206,0.2045,0.2043,0.2039,0.2037,0.2032,0.2035,0.2035,0.2073,0.2028,0.2095,0.2098,0.2102,0.2139,0.2146,0.2152,0,0,0,0,0,0.2099,0.2128,0.2113,0.211,0.21,0.2091,0.2088,0.2064,0.2045,0.2059,0.2044,0.2037,0.2059,0.2036,0.2036,0.2075,0.2093,0.2097,0.2102,0.2135,0.2145,0.2152,0,0,0,0,0,0,0.2128,0.2127,0.2111,0.2135,0.2114,0.2087,0.2088,0.2066,0.2065,0.2057,0.2043,0.2042,0.2072,0.2065,0.2039,0.2111,0.2083,0.2087,0.2109,0.2117,0.2124,0.212,0.2028,0,0,0,0,0,0.2139,0.2166,0.2142,0.2155,0.2151,0.2117,0.2107,0.2087,0.2074,0.2072,0.2081,0.2084,0.2092,0.2093,0.2111,0.2129,0.2177,0.2162,0.2169,0.2175,0.2175,0.2286,0.2303,0.2118,0.2118,0.2118,0,0,0.2149,0.2148,0.2161,0.2162,0.2146,0.2135,0.2114,0.2101,0.2099,0.2072,0.2102,0.2112,0.2104,0.2138,0.2152,0.2131,0.2259,0.2181,0.2185,0.2182,0.2292,0.231,0.2327,0.2121,0.212,0.212,0,0,0.217,0.2186,0.2207,0.2183,0.2154,0.215,0.2146,0.2137,0.2149,0.2169,0.2151,0.2174,0.2205,0.2202,0.2199,0.2252,0.2299,0.2273,0.2294,0.2402,0.2419,0.2433,0.2542,0.2566,0.2268,0.2268,0.2268,0,0.2167,0.2198,0.2206,0.2189,0.2171,0.2158,0.215,0.2157,0.2155,0.218,0.2193,0.2249,0.2238,0.2251,0.2266,0.2268,0.2343,0.2256,0.2412,0.2427,0.2442,0.2549,0.2575,0.2271,0.2271,0.227,0.227,0,0.2199,0.2192,0.2198,0.219,0.2179,0.2175,0.2167,0.2201,0.2232,0.2242,0.2308,0.2316,0.2348,0.2356,0.2318,0.2401,0.2428,0.2416,0.2388,0.2463,0.2572,0.2598,0.2274,0.2273,0.2273,0.2272,0,0,0.2247,0.2233,0.2225,0.2203,0.2178,0.2173,0.2198,0.2234,0.2266,0.2317,0.2391,0.2396,0.242,0.2418,0.2399,0.2467,0.2625,0.248,0.2484,0.2583,0.2891,0.2789,0.2808,0.2654,0.2658,0.2662,0.2934,0,0.2261,0.227,0.2249,0.2221,0.222,0.2202,0.2234,0.2251,0.231,0.2393,0.2424,0.2485,0.2435,0.2468,0.2528,0.2597,0.2693,0.2553,0.2806,0.2813,0.271,0.2834,0.2699,0.292,0.296,0.2965,0.2968,0,0.2285,0.2291,0.2306,0.226,0.2259,0.2244,0.2303,0.2316,0.24,0.246,0.2522,0.256,0.2631,0.2612,0.2788,0.271,0.2807,0.2871,0.2883,0.2786,0.2759,0.2848,0.2966,0.2843,0.3008,0.3005,0.3002,0,0.2357,0.2305,0.2343,0.2317,0.2294,0.2301,0.2299,0.2351,0.2387,0.2504,0.2581,0.2669,0.2751,0.2873,0.2949,0.2914,0.3176,0.3153,0.3163,0.3159,0.3087,0.3067,0.3105,0.3332,0.3331,0.333,0.333,0,0.2395,0.2382,0.2371,0.2378,0.2382,0.2342,0.2374,0.2402,0.2475,0.2531,0.2608,0.2705,0.283,0.296,0.3035,0.3165,0.3257,0.3199,0.3229,0.3097,0.3075,0.2994,0.2969,0.3341,0.3338,0.3336,0.3335,0,0.2436,0.2452,0.2441,0.2431,0.2414,0.2409,0.2372,0.2397,0.2484,0.2577,0.2625,0.2787,0.2974,0.3073,0.3294,0.3274,0.3309,0.3432,0.3252,0.3253,0.3099,0.3083,0.3037,0.2991,0.3521,0.3521,0.352,0,0.2461,0.2479,0.2474,0.2445,0.242,0.2397,0.2381,0.2413,0.2435,0.2617,0.2672,0.289,0.3003,0.3258,0.3313,0.3451,0.3351,0.3378,0.3258,0.309,0.3099,0.2918,0.287,0.3219,0.3216,0.3214,0.3212,0,0.2448,0.2465,0.2469,0.2441,0.2401,0.2358,0.2335,0.2362,0.2431,0.2534,0.2684,0.2799,0.3049,0.3131,0.3273,0.3322,0.3172,0.3327,0.3229,0.2923,0.2663,0.2631,0.3041,0.3189,0.3191,0.3193,0.3194,0.3195,0.2402,0.241,0.2419,0.2363,0.2318,0.2273,0.2231,0.2251,0.23,0.2392,0.2588,0.268,0.2881,0.3072,0.3087,0.3006,0.3066,0.2947,0.2973,0.2825,0.2655,0.2988,0.3094,0.3096,0.3097,0.3099,0.31,0,0.2313,0.2331,0.2303,0.224,0.2147,0.2166,0.2149,0.2112,0.213,0.2241,0.2344,0.2457,0.2565,0.2677,0.2721,0.2638,0.2501,0.2605,0.2351,0.2355,0.274,0.2593,0.2501,0.2501,0.2501,0.2501,0.2501,0.2501,0.2267,0.2238,0.2242,0.2059,0.2003,0.1896,0.1876,0.1876,0.191,0.1926,0.1941,0.2049,0.2252,0.2367,0.2318,0.2289,0.2142,0.2057,0.2108,0.2387,0.2419,0.245,0.23,0.2148,0.2148,0.1571,0.1567,0.1564]},{"header":{"parameterUnit":"m.s-1","parameterCategory":2,"la1":30.2991,"la2":30.254,"lo1":-89.0895,"lo2":-89.0444,"dy":0.0017,"dx":0.0017,"nx":28,"ny":28,"refTime":"2025-07-16T21:00:00:Z","depth":"0","parameterNumber":3,"parameterNumberName":"V-component_of_CURRENTS"},"data":[0,0,0,0,0,0,0,0,0,0,0,0,0,0,0,0,0,0,0,0,0,0,0,0,0,0,0,0,0,0,0,0,0,0,0,0,0,0,0,0,0,0,0,0,0,0,0,0,0,0,0,0,0,0,0,0,0,0,0.0257,0.0257,0,0.0227,0.0226,0.0225,0.0205,0.0206,0.0207,0.0208,0.018,0.0178,0.0177,0,0,0,0,0,0,0,0,0,0,0,0,0,0.032,0.0317,0.0257,0.0257,0.0258,0.0227,0.0226,0.0225,0.0205,0.0206,0.0207,0.0208,0.018,0.0179,0.0177,0,0,0,0,0,0,0,0,0,0,0,0,0,0.0281,0.0317,0.0257,0.0253,0.0253,0.0228,0.0226,0.0224,0.0205,0.0206,0.0208,0.0209,0.0181,0.0179,0.0176,0.0135,0,0,0.0169,0.0168,0,0,0,0,0,0,0,0,0.0283,0.0277,0.0253,0.0253,0.0253,0.0231,0.0239,0.0198,0.0204,0.0211,0.0208,0.0209,0.0204,0.0199,0.0175,0.0134,0.0132,0.0169,0.0167,0.0166,0.0166,0,0,0,0,0,0,0,0.0285,0.0278,0.0234,0.0254,0.0254,0.0262,0.0256,0.023,0.0191,0.0211,0.0212,0.0226,0.0202,0.0177,0.0174,0.0132,0.0169,0.0167,0.0165,0.0164,0.0139,0.0139,0,0,0,0,0,0,0.0308,0.028,0.0235,0.0234,0.0285,0.026,0.0254,0.0228,0.0192,0.0191,0.0225,0.0226,0.018,0.0177,0.0173,0.0187,0.0166,0.0164,0.0163,0.0138,0.0139,0.0139,0,0,0,0,0,0,0.0309,0.0303,0.0236,0.0268,0.0262,0.0259,0.0229,0.0227,0.0213,0.0205,0.0202,0.0218,0.0181,0.0177,0.0168,0.0183,0.0163,0.0161,0.0137,0.0138,0.0139,0.0172,0,0,0,0,0,0,0.031,0.0302,0.0294,0.0268,0.0261,0.0228,0.0229,0.0226,0.0225,0.0225,0.0197,0.0195,0.0182,0.0172,0.0166,0.018,0.0159,0.0136,0.0137,0.0139,0.017,0.0174,0.0178,0,0,0,0,0,0.0312,0.0306,0.0292,0.0289,0.0247,0.0229,0.0223,0.022,0.0224,0.0212,0.0206,0.0197,0.0177,0.017,0.0163,0.0176,0.0135,0.0137,0.0139,0.0169,0.0174,0.0178,0,0,0,0,0,0,0.0346,0.0303,0.0288,0.0273,0.0255,0.023,0.0235,0.0222,0.0202,0.0211,0.0193,0.019,0.0188,0.0177,0.017,0.0176,0.0159,0.016,0.0185,0.0189,0.0193,0.0241,0.0157,0,0,0,0,0,0.0345,0.0319,0.0288,0.028,0.0272,0.0248,0.0244,0.0234,0.022,0.0212,0.0198,0.0192,0.0184,0.0185,0.0168,0.0164,0.0171,0.0173,0.0177,0.018,0.0216,0.0238,0.0248,0.0145,0.0145,0.0145,0,0,0.0366,0.0338,0.0329,0.0286,0.0272,0.0266,0.0246,0.0241,0.0249,0.0213,0.022,0.0195,0.0183,0.0183,0.0183,0.018,0.0206,0.0182,0.0185,0.022,0.0241,0.0251,0.026,0.0146,0.0146,0.0146,0,0,0.0392,0.0358,0.0341,0.0322,0.0302,0.029,0.0291,0.0261,0.0259,0.0253,0.0238,0.0235,0.0212,0.0215,0.0213,0.023,0.0219,0.0217,0.0282,0.0302,0.0311,0.032,0.0312,0.032,0.0228,0.0228,0.0228,0,0.042,0.0384,0.0342,0.0325,0.0336,0.0304,0.0311,0.0297,0.0274,0.0293,0.027,0.0267,0.0239,0.0268,0.0271,0.0242,0.0242,0.0261,0.0308,0.0317,0.0325,0.0316,0.0324,0.023,0.023,0.0229,0.0229,0,0.042,0.0404,0.0403,0.0367,0.037,0.0369,0.0359,0.0365,0.0365,0.0358,0.0378,0.0339,0.0354,0.0329,0.0302,0.0345,0.032,0.0301,0.0298,0.0338,0.0324,0.0332,0.0232,0.0232,0.0231,0.0231,0,0,0.0443,0.0407,0.0406,0.0414,0.0392,0.0401,0.0431,0.0453,0.0496,0.0466,0.0525,0.0486,0.0472,0.0471,0.043,0.044,0.0462,0.0399,0.0399,0.0396,0.0492,0.0435,0.0437,0.0449,0.0452,0.0453,0.0449,0,0.0456,0.0446,0.0431,0.0462,0.0465,0.0473,0.0515,0.0539,0.0552,0.0594,0.0577,0.0595,0.0524,0.0529,0.0529,0.0486,0.0489,0.0465,0.0453,0.0453,0.0402,0.0447,0.0511,0.051,0.0456,0.0458,0.0458,0,0.0452,0.0449,0.0469,0.0521,0.0529,0.0554,0.064,0.0671,0.0722,0.0738,0.0761,0.0737,0.0749,0.0679,0.0655,0.0641,0.0582,0.0538,0.0536,0.049,0.0413,0.0469,0.0526,0.0434,0.047,0.0469,0.0468,0,0.0478,0.0489,0.0517,0.0522,0.0563,0.0609,0.0654,0.0715,0.077,0.0831,0.0877,0.0876,0.0888,0.0836,0.0725,0.0703,0.0689,0.0646,0.054,0.0533,0.0593,0.0588,0.0574,0.0645,0.0645,0.0645,0.0645,0,0.0491,0.0517,0.053,0.054,0.0619,0.0645,0.0742,0.0793,0.0876,0.0958,0.0949,0.1011,0.093,0.0898,0.079,0.069,0.074,0.0577,0.0546,0.06,0.0596,0.0521,0.0476,0.0644,0.0645,0.0645,0.0645,0,0.0513,0.0509,0.0547,0.0596,0.0622,0.0683,0.0793,0.0865,0.0938,0.105,0.1079,0.1126,0.1103,0.0986,0.0901,0.0774,0.0653,0.0619,0.0668,0.0642,0.0453,0.0407,0.0445,0.0432,0.053,0.0529,0.0528,0,0.0512,0.0525,0.0586,0.0623,0.0645,0.073,0.08,0.0889,0.0967,0.1121,0.1183,0.1209,0.1245,0.1092,0.0906,0.0729,0.0646,0.0621,0.0591,0.0475,0.0402,0.0414,0.0402,0.0672,0.0673,0.0673,0.0673,0,0.0517,0.0542,0.0584,0.0663,0.0726,0.0816,0.0916,0.0987,0.111,0.1216,0.1354,0.1404,0.1298,0.1189,0.0933,0.0798,0.0616,0.0616,0.0518,0.0542,0.0542,0.0503,0.0608,0.0675,0.0675,0.0675,0.0675,0.0674,0.0523,0.0574,0.0632,0.0719,0.0796,0.0905,0.0997,0.1108,0.1256,0.1439,0.1466,0.156,0.1396,0.1099,0.0906,0.0592,0.0623,0.0507,0.0468,0.0495,0.0477,0.0557,0.0564,0.0563,0.0563,0.0562,0.0561,0,0.0529,0.0604,0.0687,0.0796,0.0892,0.093,0.1083,0.1188,0.1366,0.1505,0.1628,0.1598,0.1371,0.1091,0.0694,0.0484,0.0463,0.0376,0.0435,0.0431,0.0531,0.0527,0.05,0.05,0.05,0.0501,0.0501,0.0501,0.0535,0.0626,0.0693,0.085,0.0938,0.1088,0.1182,0.1343,0.1469,0.1658,0.1725,0.178,0.1635,0.0928,0.0478,0.0354,0.0257,0.0278,0.0183,0.0246,0.0256,0.0266,0.0251,0.0167,0.0167,0.0171,0.017,0.017]}],[{"header":{"parameterUnit":"m.s-1","parameterCategory":2,"la1":30.2991,"la2":30.254,"lo1":-89.0895,"lo2":-89.0444,"dy":0.0017,"dx":0.0017,"nx":28,"ny":28,"refTime":"2025-07-16T21:00:00:Z","depth":"2","parameterNumber":2,"parameterNumberName":"U-component_of_CURRENTS"},"data":[0,0,0,0,0,0,0,0,0,0,0,0,0,0,0,0,0,0,0,0,0,0,0,0,0,0,0,0,0,0,0,0,0,0,0,0,0,0,0,0,0,0,0,0,0,0,0,0,0,0,0,0,0,0,0,0,0,0,0.1576,0.1572,0,0.1456,0.1457,0.1457,0.1512,0.1513,0.1514,0.1514,0.1482,0.148,0.1478,0,0,0,0,0,0,0,0,0,0,0,0,0,0.1781,0.1779,0.1576,0.1572,0.1568,0.1456,0.1457,0.1457,0.1512,0.1513,0.1514,0.1515,0.1482,0.148,0.1478,0,0,0,0,0,0,0,0,0,0,0,0,0,0.1702,0.1779,0.1577,0.1565,0.1561,0.1456,0.1457,0.1457,0.1512,0.1513,0.1514,0.1515,0.1483,0.148,0.1478,0.1438,0,0,0.1471,0.1469,0,0,0,0,0,0,0,0,0.1707,0.1698,0.157,0.1565,0.156,0.1479,0.1515,0.1447,0.1511,0.1555,0.1514,0.1516,0.1472,0.1471,0.1478,0.1437,0.1435,0.147,0.1469,0.1468,0.1467,0,0,0,0,0,0,0,0.1713,0.1703,0.1553,0.1565,0.1559,0.1539,0.1533,0.1504,0.1529,0.1552,0.1549,0.1498,0.1474,0.1481,0.1478,0.1435,0.147,0.1468,0.1467,0.1466,0.1418,0.1418,0,0,0,0,0,0,0.1681,0.1708,0.1556,0.1547,0.1611,0.1533,0.1527,0.1524,0.1527,0.1521,0.1497,0.15,0.1484,0.1481,0.1477,0.1536,0.1468,0.1465,0.1464,0.1417,0.1418,0.1418,0,0,0,0,0,0,0.1687,0.1671,0.156,0.1603,0.1584,0.1526,0.1523,0.152,0.154,0.148,0.1481,0.1519,0.1485,0.148,0.1488,0.153,0.1464,0.1462,0.1417,0.1417,0.1418,0.1585,0,0,0,0,0,0,0.1695,0.1676,0.1627,0.1602,0.158,0.151,0.1519,0.1516,0.1493,0.1499,0.1498,0.1496,0.1486,0.1492,0.1485,0.1526,0.146,0.1417,0.1417,0.1418,0.1579,0.1591,0.1601,0,0,0,0,0,0.1704,0.1617,0.1628,0.1604,0.153,0.1507,0.1498,0.1475,0.1493,0.1504,0.152,0.1497,0.1488,0.1491,0.1483,0.1524,0.1417,0.1417,0.1418,0.1574,0.1588,0.16,0,0,0,0,0,0,0.1667,0.1612,0.1623,0.1523,0.1525,0.1508,0.1494,0.1481,0.1502,0.1524,0.1506,0.1504,0.1512,0.1484,0.1486,0.1503,0.1444,0.1443,0.1566,0.1579,0.1589,0.1596,0.1458,0,0,0,0,0,0.1637,0.1614,0.156,0.1519,0.1523,0.1526,0.1499,0.1495,0.1503,0.1516,0.1531,0.1527,0.1502,0.1518,0.1486,0.151,0.1515,0.1523,0.1534,0.1544,0.154,0.1648,0.1672,0.1419,0.1419,0.1419,0,0,0.1611,0.1589,0.1566,0.1516,0.1551,0.153,0.1527,0.1521,0.1521,0.1504,0.1564,0.1553,0.1505,0.1534,0.1536,0.1529,0.1608,0.1545,0.1555,0.1544,0.1652,0.1677,0.17,0.142,0.1419,0.1419,0,0,0.1591,0.1569,0.1547,0.1536,0.1529,0.1537,0.1538,0.1551,0.1588,0.1608,0.1595,0.1631,0.1612,0.162,0.1602,0.1646,0.164,0.1623,0.1723,0.1831,0.1855,0.1875,0.1891,0.1912,0.1661,0.1661,0.1661,0,0.1565,0.1532,0.1538,0.1518,0.1499,0.155,0.1529,0.1561,0.1576,0.1629,0.1644,0.1667,0.1654,0.167,0.1706,0.1678,0.1709,0.1692,0.1854,0.1875,0.1894,0.1905,0.1926,0.1669,0.1668,0.1667,0.1666,0,0.1501,0.1491,0.1509,0.1523,0.15,0.1514,0.1527,0.1597,0.1664,0.169,0.1758,0.1769,0.1792,0.1796,0.1774,0.1877,0.1842,0.1843,0.1842,0.1931,0.1934,0.1954,0.1681,0.1678,0.1675,0.1673,0,0,0.1407,0.1459,0.1448,0.1515,0.15,0.1517,0.1561,0.1626,0.1698,0.1768,0.1872,0.1874,0.1922,0.1902,0.1893,0.2005,0.2173,0.2006,0.2008,0.2055,0.237,0.2155,0.2154,0.2241,0.2245,0.2249,0.2313,0,0.1387,0.1416,0.1372,0.1429,0.1492,0.1524,0.1556,0.1616,0.1714,0.1847,0.1918,0.1983,0.1942,0.1992,0.2092,0.2156,0.2235,0.2151,0.2243,0.2243,0.2075,0.2174,0.1973,0.1998,0.2332,0.2335,0.2337,0,0.1267,0.1366,0.1372,0.1517,0.1527,0.1521,0.1655,0.1674,0.1828,0.1909,0.2012,0.2064,0.2199,0.2178,0.2333,0.2295,0.2332,0.2379,0.2383,0.2136,0.2066,0.1962,0.202,0.2369,0.2366,0.2364,0.2362,0,0.1217,0.134,0.1384,0.1397,0.1509,0.1552,0.1633,0.1726,0.1796,0.1976,0.2082,0.2194,0.2307,0.2398,0.2441,0.2447,0.2606,0.2625,0.2432,0.2414,0.2227,0.2183,0.2728,0.2728,0.2728,0.2728,0.2728,0,0.1126,0.1217,0.1414,0.1401,0.1587,0.1596,0.168,0.1809,0.1912,0.2012,0.212,0.221,0.2393,0.2481,0.2503,0.2491,0.2643,0.2447,0.2438,0.2266,0.2228,0.253,0.2506,0.273,0.273,0.2729,0.2729,0,0.102,0.1106,0.1214,0.139,0.1531,0.1621,0.1793,0.1855,0.1941,0.2092,0.2169,0.2322,0.2441,0.2504,0.2654,0.2552,0.257,0.2501,0.2224,0.2178,0.2297,0.228,0.2371,0.2364,0.2359,0.2354,0.235,0,0.1019,0.1025,0.1211,0.1323,0.1419,0.1614,0.1752,0.1903,0.195,0.2116,0.2204,0.2369,0.2398,0.2448,0.2362,0.2313,0.2456,0.207,0.2033,0.2289,0.2272,0.2264,0.2255,0.1856,0.1848,0.1842,0.1837,0,0.1003,0.0947,0.098,0.1259,0.1439,0.1644,0.1858,0.1917,0.2025,0.2135,0.224,0.2273,0.2266,0.211,0.1981,0.193,0.207,0.1935,0.2358,0.1937,0.1799,0.1782,0.1792,0.1781,0.1787,0.1791,0.1794,0.1796,0.0981,0.0979,0.0965,0.1252,0.146,0.1667,0.1737,0.1861,0.1967,0.2033,0.2103,0.2031,0.1929,0.1635,0.157,0.1547,0.1667,0.1612,0.1636,0.1666,0.1554,0.141,0.1295,0.1298,0.13,0.1302,0.1304,0,0.1004,0.1003,0.1092,0.1303,0.1446,0.1633,0.1817,0.1774,0.1837,0.1853,0.1837,0.1538,0.1326,0.1337,0.1154,0.1057,0.1116,0.1095,0.1184,0.1233,0.1278,0.1155,0.0788,0.0787,0.0787,0.0787,0,0,0.1025,0.0987,0.101,0.129,0.1459,0.1624,0.1686,0.1643,0.1592,0.1485,0.1386,0.1249,0.1207,0.097,0.0897,0.0852,0.1073,0.0833,0.1224,0.1375,0.1423,0.1519,0.1373,0,0,0,0,0]},{"header":{"parameterUnit":"m.s-1","parameterCategory":2,"la1":30.2991,"la2":30.254,"lo1":-89.0895,"lo2":-89.0444,"dy":0.0017,"dx":0.0017,"nx":28,"ny":28,"refTime":"2025-07-16T21:00:00:Z","depth":"2","parameterNumber":3,"parameterNumberName":"V-component_of_CURRENTS"},"data":[0,0,0,0,0,0,0,0,0,0,0,0,0,0,0,0,0,0,0,0,0,0,0,0,0,0,0,0,0,0,0,0,0,0,0,0,0,0,0,0,0,0,0,0,0,0,0,0,0,0,0,0,0,0,0,0,0,0,0.0123,0.0124,0,0.0112,0.011,0.0109,0.0086,0.0087,0.0087,0.0088,0.0049,0.0048,0.0046,0,0,0,0,0,0,0,0,0,0,0,0,0,0.0193,0.019,0.0123,0.0124,0.0125,0.0112,0.011,0.0109,0.0085,0.0087,0.0088,0.0089,0.005,0.0048,0.0046,0,0,0,0,0,0,0,0,0,0,0,0,0,0.0156,0.019,0.0123,0.0123,0.0124,0.0112,0.011,0.0108,0.0085,0.0087,0.0088,0.0089,0.0051,0.0048,0.0045,0.0001,0,0,0.0037,0.0036,0,0,0,0,0,0,0,0,0.0158,0.0151,0.0122,0.0123,0.0125,0.0115,0.0122,0.0076,0.0085,0.0084,0.0088,0.009,0.0078,0.0073,0.0046,-0.0001,-0.0003,0.0036,0.0035,0.0034,0.0033,0,0,0,0,0,0,0,0.0161,0.0153,0.0103,0.0123,0.0125,0.0149,0.0143,0.0112,0.0061,0.0084,0.0086,0.0109,0.0076,0.0049,0.0046,-0.0003,0.0037,0.0034,0.0032,0.0031,-0.0047,-0.0047,0,0,0,0,0,0,0.0186,0.0154,0.0104,0.0105,0.0162,0.0147,0.014,0.0104,0.0062,0.0062,0.0107,0.0108,0.0053,0.0049,0.0044,0.0052,0.0034,0.0031,0.0029,-0.0046,-0.0047,-0.0047,0,0,0,0,0,0,0.0187,0.0179,0.0105,0.0145,0.0139,0.0146,0.0106,0.0104,0.0089,0.0083,0.0079,0.0099,0.0054,0.0048,0.0036,0.0048,0.003,0.0027,-0.0046,-0.0046,-0.0047,0.0027,0,0,0,0,0,0,0.0187,0.0178,0.0163,0.0144,0.0139,0.0096,0.0106,0.0103,0.0108,0.0108,0.0074,0.0071,0.0055,0.004,0.0033,0.0044,0.0025,-0.0045,-0.0046,-0.0047,0.0026,0.003,0.0033,0,0,0,0,0,0.0189,0.0163,0.016,0.0157,0.0114,0.0098,0.0093,0.0096,0.0107,0.0087,0.0084,0.0073,0.003,0.0037,0.0029,0.004,-0.0045,-0.0046,-0.0047,0.0024,0.0029,0.0033,0,0,0,0,0,0,0.0205,0.016,0.0155,0.0122,0.0115,0.01,0.0107,0.0098,0.0075,0.0087,0.0068,0.0063,0.0042,0.0029,0.0038,0.0012,-0.001,-0.0013,0.0046,0.005,0.0054,0.009,0.0023,0,0,0,0,0,0.02,0.0155,0.0138,0.0118,0.0119,0.011,0.011,0.0103,0.0092,0.0083,0.0066,0.005,0.0026,0.0034,-0.0009,-0.0007,-0.0019,-0.0009,-0.0005,-0.0001,0.002,0.0035,0.0044,-0.005,-0.005,-0.005,0,0,0.0209,0.0182,0.016,0.0119,0.0119,0.0118,0.0108,0.0108,0.0112,0.0083,0.0079,0.0044,0.0019,0.0009,0.0002,0.0012,0.0008,-0.0003,0.0001,0.0021,0.0036,0.0045,0.0054,-0.0051,-0.0051,-0.005,0,0,0.0216,0.0176,0.015,0.0141,0.0142,0.0133,0.0136,0.0115,0.0111,0.0099,0.0079,0.007,0.003,0.003,0.0024,0.0025,0.0004,0.0001,0.0083,0.0098,0.0107,0.0115,0.0075,0.0079,0.0034,0.0034,0.0034,0,0.024,0.0189,0.015,0.0143,0.0155,0.0143,0.0148,0.0137,0.0115,0.0131,0.0109,0.0071,0.0047,0.0065,0.0071,0.0038,0.0026,0.0075,0.0108,0.0115,0.0122,0.0079,0.0083,0.0037,0.0037,0.0037,0.0036,0,0.0218,0.0205,0.0203,0.0175,0.0177,0.0177,0.0176,0.0181,0.0181,0.0176,0.0171,0.013,0.0128,0.0107,0.0098,0.0133,0.0096,0.009,0.0108,0.0137,0.0088,0.0091,0.0042,0.0041,0.004,0.0039,0,0,0.0197,0.0187,0.0184,0.0214,0.0192,0.0207,0.0225,0.0243,0.0284,0.0249,0.0296,0.0248,0.0235,0.0227,0.0199,0.0225,0.0247,0.02,0.0199,0.018,0.0247,0.0211,0.0209,0.026,0.0261,0.0263,0.018,0,0.0199,0.0202,0.0183,0.0229,0.0248,0.0261,0.0284,0.0309,0.0313,0.0351,0.0337,0.0343,0.0278,0.029,0.03,0.0271,0.0263,0.0268,0.0204,0.0201,0.0185,0.0215,0.02,0.0126,0.0182,0.0182,0.0183,0,0.0178,0.0186,0.0205,0.0288,0.0299,0.0323,0.0392,0.0413,0.046,0.047,0.0483,0.0458,0.0485,0.0423,0.0386,0.0397,0.0327,0.0287,0.0283,0.0236,0.0173,0.0111,0.0128,0.0186,0.0186,0.0186,0.0185,0,0.018,0.0226,0.0248,0.026,0.0316,0.0362,0.0412,0.0453,0.0504,0.0559,0.0606,0.0588,0.0611,0.0544,0.0441,0.0435,0.0385,0.0362,0.0238,0.0231,0.02,0.019,0.0318,0.0318,0.0318,0.0318,0.0319,0,0.0177,0.0219,0.0268,0.0272,0.0371,0.0399,0.0486,0.0545,0.0611,0.0695,0.0674,0.0715,0.0654,0.0607,0.0489,0.0372,0.0411,0.026,0.0229,0.0217,0.021,0.0255,0.0249,0.0315,0.0316,0.0316,0.0317,0,0.0183,0.019,0.025,0.0316,0.0367,0.0441,0.0575,0.0641,0.0691,0.0807,0.0843,0.0852,0.0801,0.0673,0.0566,0.0445,0.0326,0.0251,0.0213,0.0181,0.0141,0.0139,0.014,0.0138,0.0137,0.0136,0.0135,0,0.0184,0.0196,0.0285,0.0351,0.0392,0.0506,0.0592,0.0683,0.0757,0.0875,0.0947,0.0936,0.0921,0.0722,0.0523,0.0308,0.0281,0.0139,0.0135,0.0164,0.0133,0.0133,0.0133,0.009,0.0089,0.0088,0.0087,0,0.0198,0.0213,0.026,0.0384,0.0491,0.0619,0.0755,0.0829,0.0937,0.1036,0.1134,0.1132,0.0943,0.072,0.0424,0.0288,0.0187,0.0114,0.0183,0.0147,0.0114,0.0084,0.0086,0.0079,0.0079,0.008,0.0081,0.0081,0.0223,0.0277,0.0333,0.0467,0.0592,0.0742,0.0849,0.0972,0.1118,0.1256,0.1206,0.1157,0.0874,0.048,0.0286,0.012,0.013,0.0027,0.0031,0.0037,0.0055,0.0024,-0.0029,-0.0029,-0.0029,-0.0029,-0.0028,0,0.0267,0.0333,0.0442,0.0596,0.0727,0.079,0.0974,0.1063,0.1239,0.1264,0.1296,0.0953,0.0682,0.0428,0.0162,-0.0013,0.001,-0.0054,-0.002,-0.0012,-0.0005,0.0014,-0.0083,-0.0084,-0.0084,-0.0084,0,0,0.03,0.0399,0.0463,0.0687,0.0806,0.0998,0.1105,0.1234,0.1267,0.1285,0.1192,0.097,0.0637,0.0385,0.0162,0.0056,0.0084,0.0053,0.0106,0.0179,0.019,0.0038,0.0075,0,0,0,0,0]}],[{"header":{"parameterUnit":"m.s-1","parameterCategory":2,"la1":30.2991,"la2":30.254,"lo1":-89.0895,"lo2":-89.0444,"dy":0.0017,"dx":0.0017,"nx":28,"ny":28,"refTime":"2025-07-16T21:00:00:Z","depth":"4","parameterNumber":2,"parameterNumberName":"U-component_of_CURRENTS"},"data":[0,0,0,0,0,0,0,0,0,0,0,0,0,0,0,0,0,0,0,0,0,0,0,0,0,0,0,0,0,0,0,0,0,0,0,0,0,0,0,0,0,0,0,0,0,0,0,0,0,0,0,0,0,0,0,0,0,0,-0.053,-0.0531,0,-0.0548,-0.0548,-0.0548,-0.0535,-0.0535,-0.0535,-0.0535,-0.0623,-0.0626,-0.0628,0,0,0,0,0,0,0,0,0,0,0,0,0,-0.0504,-0.0504,-0.053,-0.0531,-0.0532,-0.0548,-0.0548,-0.0547,-0.0535,-0.0535,-0.0535,-0.0535,-0.0623,-0.0625,-0.0628,0,0,0,0,0,0,0,0,0,0,0,0,0,-0.0513,-0.0504,-0.053,-0.0532,-0.0533,-0.0548,-0.0548,-0.0547,-0.0535,-0.0535,-0.0535,-0.0535,-0.0622,-0.0625,-0.0629,-0.0652,0,0,-0.064,-0.0641,0,0,0,0,0,0,0,0,-0.0512,-0.0513,-0.0531,-0.0532,-0.0533,-0.0544,-0.0571,-0.0588,-0.0535,-0.0528,-0.0535,-0.0535,-0.0607,-0.0612,-0.0606,-0.0656,-0.066,-0.064,-0.0642,-0.0644,-0.0645,0,0,0,0,0,0,0,-0.0511,-0.0512,-0.0531,-0.0532,-0.0533,-0.0539,-0.0539,-0.0574,-0.0564,-0.0528,-0.0529,-0.054,-0.0607,-0.0603,-0.0609,-0.0661,-0.064,-0.0643,-0.0645,-0.0647,-0.0813,-0.0815,0,0,0,0,0,0,-0.052,-0.0511,-0.0531,-0.0533,-0.0529,-0.0539,-0.0539,-0.0536,-0.0563,-0.0568,-0.054,-0.054,-0.0597,-0.0604,-0.0612,-0.0703,-0.0644,-0.0647,-0.0649,-0.0811,-0.0814,-0.0816,0,0,0,0,0,0,-0.0519,-0.0521,-0.053,-0.0528,-0.053,-0.054,-0.0536,-0.0536,-0.0538,-0.0572,-0.0577,-0.0543,-0.0597,-0.0607,-0.0657,-0.0705,-0.0649,-0.0652,-0.0808,-0.0812,-0.0815,-0.0847,0,0,0,0,0,0,-0.0518,-0.052,-0.053,-0.0528,-0.0531,-0.0551,-0.0537,-0.0537,-0.0547,-0.0546,-0.0576,-0.0584,-0.0598,-0.0652,-0.0661,-0.0709,-0.0655,-0.0805,-0.081,-0.0814,-0.0844,-0.0852,-0.0858,0,0,0,0,0,-0.0517,-0.053,-0.0529,-0.0533,-0.054,-0.0552,-0.0553,-0.0557,-0.0548,-0.0555,-0.0578,-0.0583,-0.0686,-0.0656,-0.0666,-0.0716,-0.0803,-0.0809,-0.0814,-0.084,-0.085,-0.0858,0,0,0,0,0,0,-0.0535,-0.0531,-0.053,-0.0544,-0.0554,-0.0552,-0.0568,-0.0561,-0.058,-0.0586,-0.0602,-0.0612,-0.0678,-0.0693,-0.066,-0.078,-0.0751,-0.0758,-0.0767,-0.0777,-0.0784,-0.0787,-0.0658,0,0,0,0,0,-0.0542,-0.054,-0.0547,-0.056,-0.0567,-0.0565,-0.0574,-0.0573,-0.0589,-0.0594,-0.0621,-0.066,-0.0707,-0.0735,-0.0775,-0.0834,-0.0808,-0.0878,-0.0885,-0.0891,-0.0903,-0.0886,-0.0891,-0.0833,-0.0833,-0.0833,0,0,-0.0554,-0.0552,-0.0554,-0.0563,-0.0568,-0.058,-0.0569,-0.0586,-0.0594,-0.0606,-0.0642,-0.0685,-0.0727,-0.0795,-0.0828,-0.0814,-0.0893,-0.0898,-0.0902,-0.0911,-0.0892,-0.0897,-0.0901,-0.0837,-0.0836,-0.0835,0,0,-0.0574,-0.0576,-0.0581,-0.0592,-0.0608,-0.0603,-0.0609,-0.062,-0.0626,-0.0663,-0.0687,-0.0749,-0.081,-0.0855,-0.0882,-0.0955,-0.093,-0.0987,-0.1031,-0.1014,-0.1017,-0.102,-0.0977,-0.0976,-0.0993,-0.0994,-0.0994,0,-0.0591,-0.0593,-0.059,-0.0605,-0.0616,-0.0612,-0.0626,-0.0632,-0.0661,-0.068,-0.0683,-0.08,-0.0834,-0.0922,-0.0962,-0.0971,-0.095,-0.0987,-0.1019,-0.1022,-0.1024,-0.0979,-0.0978,-0.0996,-0.0996,-0.0995,-0.0995,0,-0.0603,-0.0622,-0.0631,-0.0634,-0.0648,-0.0661,-0.0671,-0.0686,-0.0695,-0.0713,-0.0799,-0.0856,-0.0932,-0.0964,-0.099,-0.1058,-0.1032,-0.1021,-0.0985,-0.1031,-0.0982,-0.0979,-0.0999,-0.0998,-0.0997,-0.0997,0,0,-0.0589,-0.0629,-0.0629,-0.0648,-0.0663,-0.0672,-0.069,-0.071,-0.072,-0.0785,-0.0817,-0.0939,-0.0991,-0.103,-0.1085,-0.1092,-0.1091,-0.1082,-0.108,-0.102,-0.1038,-0.0926,-0.0911,-0.1084,-0.1085,-0.1085,-0.0988,0,-0.0595,-0.0619,-0.0636,-0.0669,-0.0687,-0.0699,-0.0715,-0.074,-0.0754,-0.0786,-0.087,-0.0933,-0.101,-0.106,-0.1092,-0.1075,-0.1091,-0.1118,-0.1021,-0.1018,-0.0896,-0.0907,-0.1086,-0.0986,-0.0985,-0.0985,-0.0985,0,-0.059,-0.0607,-0.0633,-0.0686,-0.0695,-0.0715,-0.0726,-0.0757,-0.0798,-0.0822,-0.0914,-0.0951,-0.103,-0.1061,-0.1084,-0.1098,-0.1098,-0.1078,-0.1073,-0.0958,-0.0901,-0.0938,-0.0979,-0.098,-0.098,-0.098,-0.0981,0,-0.0551,-0.0608,-0.0622,-0.0639,-0.069,-0.071,-0.0745,-0.0776,-0.0807,-0.0861,-0.0869,-0.0958,-0.1003,-0.1011,-0.1028,-0.1042,-0.1001,-0.0989,-0.0895,-0.0885,-0.0999,-0.0997,-0.1011,-0.1011,-0.1011,-0.1012,-0.1012,0,-0.0536,-0.0561,-0.0615,-0.0622,-0.0654,-0.0717,-0.0752,-0.0782,-0.0845,-0.0861,-0.0925,-0.0919,-0.0995,-0.0984,-0.0992,-0.0929,-0.0975,-0.0898,-0.0856,-0.1014,-0.1015,-0.0995,-0.0994,-0.1008,-0.1009,-0.101,-0.101,0,-0.0501,-0.0533,-0.0559,-0.0611,-0.0638,-0.067,-0.077,-0.0789,-0.0854,-0.0864,-0.0884,-0.0903,-0.0842,-0.0888,-0.0863,-0.0864,-0.0809,-0.0797,-0.095,-0.0918,-0.0705,-0.0708,-0.0617,-0.0612,-0.0608,-0.0605,-0.0602,0,-0.0491,-0.05,-0.0528,-0.0549,-0.0582,-0.0654,-0.0688,-0.0787,-0.0799,-0.0813,-0.0789,-0.0764,-0.0757,-0.0622,-0.0684,-0.0656,-0.0688,-0.0669,-0.0716,-0.0699,-0.0667,-0.0676,-0.0684,-0.0596,-0.0595,-0.0594,-0.0593,0,-0.0471,-0.0465,-0.0464,-0.0494,-0.0532,-0.0576,-0.0635,-0.0636,-0.0708,-0.0764,-0.0646,-0.0598,-0.053,-0.05,-0.0527,-0.0516,-0.0663,-0.0628,-0.0636,-0.068,-0.0672,-0.0646,-0.0659,-0.0579,-0.0581,-0.0582,-0.0583,0,-0.0443,-0.0417,-0.0406,-0.0439,-0.0483,-0.0481,-0.0518,-0.0511,-0.054,-0.0556,-0.0492,-0.0452,-0.0476,-0.0424,-0.0417,-0.0416,-0.0403,-0.0411,-0.0431,-0.0447,-0.0446,-0.0415,-0.0197,0,0,0,0,0,-0.0421,-0.0373,-0.0377,-0.0368,-0.0408,-0.044,-0.0473,-0.0505,-0.0542,-0.0427,-0.0471,-0.0382,-0.0322,-0.0305,-0.0268,-0.0356,-0.0432,-0.0313,-0.0459,-0.0502,-0.0518,-0.0539,0,0,0,0,0,0,-0.0392,-0.0362,-0.0339,-0.0324,-0.0326,-0.0346,-0.0365,-0.0378,-0.032,-0.0351,-0.0309,-0.0348,-0.0299,-0.0333,-0.0255,-0.0261,-0.034,-0.0321,-0.0319,-0.0493,-0.0508,-0.0521,-0.0547,0,0,0,0,0]},{"header":{"parameterUnit":"m.s-1","parameterCategory":2,"la1":30.2991,"la2":30.254,"lo1":-89.0895,"lo2":-89.0444,"dy":0.0017,"dx":0.0017,"nx":28,"ny":28,"refTime":"2025-07-16T21:00:00:Z","depth":"4","parameterNumber":3,"parameterNumberName":"V-component_of_CURRENTS"},"data":[0,0,0,0,0,0,0,0,0,0,0,0,0,0,0,0,0,0,0,0,0,0,0,0,0,0,0,0,0,0,0,0,0,0,0,0,0,0,0,0,0,0,0,0,0,0,0,0,0,0,0,0,0,0,0,0,0,0,0.0198,0.0198,0,0.0208,0.0208,0.0208,0.0198,0.0197,0.0197,0.0196,0.0189,0.0189,0.019,0,0,0,0,0,0,0,0,0,0,0,0,0,0.0184,0.0185,0.0198,0.0198,0.0198,0.0208,0.0208,0.0208,0.0198,0.0197,0.0197,0.0196,0.0189,0.0189,0.019,0,0,0,0,0,0,0,0,0,0,0,0,0,0.0193,0.0185,0.0198,0.0192,0.0192,0.0208,0.0208,0.0208,0.0198,0.0197,0.0197,0.0196,0.0189,0.0189,0.019,0.021,0,0,0.0191,0.0191,0,0,0,0,0,0,0,0,0.0193,0.0194,0.0193,0.0193,0.0192,0.0199,0.0201,0.0207,0.0198,0.0198,0.0196,0.0195,0.019,0.0191,0.0197,0.0209,0.0209,0.0191,0.0192,0.0192,0.0192,0,0,0,0,0,0,0,0.0192,0.0194,0.0203,0.0193,0.0193,0.0195,0.0195,0.0202,0.02,0.0198,0.0196,0.0195,0.019,0.0197,0.0197,0.0209,0.0191,0.0192,0.0192,0.0192,0.0143,0.0141,0,0,0,0,0,0,0.0188,0.0193,0.0203,0.0203,0.0189,0.0195,0.0196,0.0199,0.02,0.0199,0.0196,0.0195,0.0196,0.0196,0.0196,0.015,0.0192,0.0192,0.0193,0.0144,0.0142,0.0141,0,0,0,0,0,0,0.0188,0.0189,0.0203,0.0197,0.0198,0.0196,0.02,0.02,0.0201,0.0198,0.0197,0.0197,0.0196,0.0196,0.0175,0.0152,0.0192,0.0193,0.0146,0.0144,0.0141,0.0102,0,0,0,0,0,0,0.0187,0.0189,0.0184,0.0197,0.0199,0.0205,0.0201,0.0201,0.0201,0.02,0.0199,0.0198,0.0195,0.0174,0.0176,0.0154,0.0193,0.0148,0.0145,0.0142,0.0106,0.0099,0.0093,0,0,0,0,0,0.0187,0.0183,0.0184,0.0184,0.0194,0.0204,0.0206,0.0202,0.0202,0.0202,0.0185,0.0198,0.0156,0.0174,0.0176,0.0153,0.015,0.0146,0.0142,0.0109,0.01,0.0093,0,0,0,0,0,0,0.0168,0.0182,0.0183,0.0181,0.0188,0.0202,0.02,0.0204,0.0194,0.0192,0.0186,0.0183,0.0155,0.0159,0.0179,0.0126,0.0152,0.0148,0.0125,0.0118,0.0111,0.0103,0.0194,0,0,0,0,0,0.0164,0.017,0.018,0.0179,0.0184,0.0194,0.0196,0.0201,0.0197,0.0194,0.0185,0.0169,0.0144,0.0135,0.0123,0.0105,0.0117,0.0087,0.0081,0.0076,0.0067,0.0043,0.0034,0.0129,0.0129,0.0129,0,0,0.0159,0.0165,0.0169,0.0176,0.0184,0.0176,0.0194,0.0203,0.0185,0.0195,0.0163,0.0155,0.0135,0.0101,0.0089,0.0101,0.0061,0.0071,0.0067,0.0061,0.0038,0.0029,0.0021,0.0126,0.0127,0.0127,0,0,0.0152,0.0157,0.0159,0.0159,0.0168,0.017,0.0172,0.0182,0.0175,0.0155,0.0141,0.0113,0.0094,0.0062,0.0046,0.0,0.0031,-0.0001,-0.004,-0.0064,-0.0072,-0.0078,-0.0041,-0.0044,-0.0007,-0.0007,-0.0007,0,0.0148,0.014,0.016,0.0151,0.0142,0.0163,0.0151,0.0146,0.0143,0.0121,0.0135,0.0068,0.0068,-0.0002,-0.0019,-0.0013,-0.0001,-0.0006,-0.0071,-0.0078,-0.0084,-0.0044,-0.0047,-0.0009,-0.0009,-0.0009,-0.0009,0,0.0135,0.0121,0.0122,0.0112,0.0107,0.0106,0.0099,0.0088,0.0083,0.0067,0.0015,0.0004,-0.0043,-0.0046,-0.0042,-0.01,-0.0064,-0.0071,-0.0047,-0.0095,-0.005,-0.0053,-0.0013,-0.0012,-0.0011,-0.0011,0,0,0.0156,0.0121,0.0122,0.0094,0.0086,0.0078,0.0047,0.0016,-0.0019,-0.0033,-0.0087,-0.0126,-0.013,-0.015,-0.0152,-0.0165,-0.0174,-0.0135,-0.0135,-0.0088,-0.0183,-0.0187,-0.0189,-0.0194,-0.0195,-0.0197,-0.012,0,0.0143,0.0109,0.0095,0.0048,0.0027,0.0015,-0.0026,-0.0055,-0.007,-0.0116,-0.0143,-0.0191,-0.0173,-0.0191,-0.0209,-0.0185,-0.0189,-0.0191,-0.0151,-0.0149,-0.0141,-0.0196,-0.0202,-0.0121,-0.0122,-0.0122,-0.0123,0,0.0137,0.011,0.0071,-0.0004,-0.0013,-0.0041,-0.01,-0.0137,-0.0194,-0.0211,-0.0262,-0.0271,-0.0307,-0.0277,-0.0275,-0.0276,-0.0237,-0.0208,-0.0205,-0.0203,-0.0161,-0.0074,-0.0126,-0.0126,-0.0126,-0.0126,-0.0125,0,0.0141,0.0084,0.0047,0.0028,-0.0039,-0.0068,-0.0112,-0.0164,-0.0205,-0.0271,-0.0297,-0.0345,-0.0358,-0.0345,-0.0275,-0.0281,-0.0239,-0.0244,-0.0209,-0.0205,-0.0201,-0.0195,-0.0251,-0.0251,-0.0251,-0.0251,-0.0252,0,0.0132,0.0089,0.0044,0.0022,-0.0047,-0.0085,-0.0155,-0.0204,-0.0263,-0.0323,-0.0352,-0.0385,-0.0378,-0.0348,-0.0292,-0.0247,-0.0257,-0.0225,-0.0208,-0.0213,-0.021,-0.0199,-0.0194,-0.0248,-0.0249,-0.025,-0.025,0,0.0123,0.0105,0.0043,-0.002,-0.0044,-0.0097,-0.0186,-0.0242,-0.0288,-0.0357,-0.0381,-0.0412,-0.0393,-0.0345,-0.0295,-0.0267,-0.0217,-0.0193,-0.0155,-0.0134,-0.0156,-0.0154,-0.0175,-0.0175,-0.0175,-0.0175,-0.0175,0,0.0099,0.0082,0.0018,-0.0021,-0.0054,-0.0129,-0.0188,-0.0253,-0.0303,-0.0368,-0.0402,-0.0405,-0.0415,-0.0321,-0.0291,-0.0201,-0.0195,-0.0153,-0.0214,-0.0178,-0.0159,-0.0157,-0.0155,-0.0175,-0.0175,-0.0175,-0.0175,0,0.0044,0.0042,-0.0004,-0.0057,-0.0113,-0.0197,-0.0273,-0.0289,-0.0363,-0.0396,-0.041,-0.0395,-0.0375,-0.0328,-0.0252,-0.0192,-0.0184,-0.0154,-0.0154,-0.0211,-0.0178,-0.0159,-0.0157,-0.0175,-0.0175,-0.0175,-0.0175,0,-0.0008,-0.0042,-0.0068,-0.0118,-0.0179,-0.024,-0.028,-0.0327,-0.0365,-0.0403,-0.0398,-0.0385,-0.0378,-0.0322,-0.0251,-0.0201,-0.0215,-0.0199,-0.0198,-0.0197,-0.0245,-0.0209,-0.0214,0,0,0,0,0,-0.0073,-0.009,-0.0139,-0.0188,-0.0236,-0.0261,-0.0333,-0.0362,-0.0383,-0.0388,-0.0388,-0.0364,-0.0316,-0.0301,-0.0253,-0.0277,-0.0216,-0.0223,-0.0197,-0.0175,-0.0175,-0.0232,0,0,0,0,0,0,-0.011,-0.0153,-0.0147,-0.0212,-0.024,-0.0309,-0.0336,-0.0363,-0.0357,-0.0364,-0.0328,-0.0342,-0.0284,-0.0321,-0.0241,-0.0236,-0.0214,-0.0207,-0.0207,-0.0175,-0.0175,-0.0175,-0.0233,0,0,0,0,0]}]]